ATLAS 5 CENTAUR DEB, 43962

Orbit data source: Space-Track

ATLAS 5 CENTAUR DEB, 43962 is space debris in HEO originally from a launch on Wed, 17 Sep 2014 UTC launched from the Air Force Eastern Test Range (AFETR). Debris objects in space refer to the collection of defunct objects orbiting the Earth. Examples of debris include non-operational satellites, rocket bodies, and fragments generated from explosions, collisions, or faulty payload assembly.

Loading next visibility...
Identifier
43962, 2014-055R
Orbit
HEO
Country
Flag of USUS
Related business
Flag of USUnited Launch Alliance/Lockheed Martin (US)
Manufacturer
Unknown
Mission
Spacecraft
Bus & Motor
Unknown
Mass
Unknown
Launch date (UTC)
2014-09-17 (12 years ago)
Launch vehicle
Unknown
Launch site
Air Force Eastern Test Range (AFETR)
Object type
Payload
Rocket body
Debris
Shape & HBR
Unknown shape, 1.1 m
Radar Cross Section
Medium (>0.1 m² and <1 m²)

Expand to show TLE details & history
Last TLE update: 1 week ago

TLE from 1 week ago
0 ATLAS 5 CENTAUR DEB
1 43962U 14055R   26227.75419997 -.00000140  00000-0  00000-0 0  9995
2 43962  20.8677 105.7394 4963741 236.4469  66.1001  1.90735968 55443
Epoch: 2026-08-15T18:06Z
TLE epoch observation values (Epoch: 2026-08-15T18:06:02.877Z)
Latitude
0.00004°
Longitude
-129.84138°
Altitude
22,172.199 km
Speed
3.662 km/s
True Right ascension
07h 03m 19s
True Declination
0° 00' 00"
Sunlit
Object was in daylight at epoch
Visualization orbit readout
Latitude
Unknown
Longitude
Unknown
Altitude
Unknown
Speed
Unknown
Apparent Right ascension
Unknown
Apparent Declination
Unknown
Sunlit
N/A
Visualization observer readout
Local Sidereal Time
00:15:51
Azimuth
Unknown
Elevation
Unknown
Doppler factor
Unknown
Orbital elements
Apogee altitude
34,722.821 km
Perigee altitude
7,454.972 km
Semi-major axis
27,467.034 km
Eccentricity
0.49637
Inclination
20.8677°
RAAN
105.7394°
Arg. of periapsis
236.4469°
True anomaly
123.55454°
Mean anomaly
66.1001°
Eccentric anomaly
94.45434°
Mean motion
0.47679 °/min
Orbital period
755.05 mins
BSTAR
0
Loading maneuver chart data...
Computing Atmospheric mass density...

Documentation

Showing up to 5 results
|